Time,TemperatureF,DewpointF,PressureIn,WindDirection,WindDirectionDegrees,WindSpeedMPH,WindSpeedGustMPH,Humidity,HourlyPrecipIn,Conditions,Clouds,dailyrainin,SoftwareType,DateUTC
2014-08-01 00:00:00,72.0,43.6,29.97,SSE,160,0.0,0.0,36,0.00,,CLR,0.00,VWS V15.00,2014-08-01 07:00:00,
2014-08-01 00:05:00,71.9,44.2,29.97,SSE,160,0.0,0.0,37,0.00,,CLR,0.00,VWS V15.00,2014-08-01 07:05:00,
2014-08-01 00:10:00,71.7,44.1,29.97,SSE,160,0.0,0.0,37,0.00,,CLR,0.00,VWS V15.00,2014-08-01 07:10:00,
2014-08-01 00:15:00,71.2,43.6,29.97,SSE,158,0.0,0.0,37,0.00,,CLR,0.00,VWS V15.00,2014-08-01 07:15:00,
2014-08-01 00:20:00,71.3,43.0,29.97,SSE,158,0.0,0.0,36,0.00,,CLR,0.00,VWS V15.00,2014-08-01 07:20:00,
2014-08-01 00:25:00,71.6,43.3,29.97,SSE,158,0.0,0.0,36,0.00,,CLR,0.00,VWS V15.00,2014-08-01 07:25:00,
2014-08-01 00:30:00,71.4,44.5,29.98,SSE,158,0.0,0.0,38,0.00,,CLR,0.00,VWS V15.00,2014-08-01 07:30:00,
2014-08-01 00:35:00,70.3,44.9,29.98,SSE,158,0.0,0.0,40,0.00,,CLR,0.00,VWS V15.00,2014-08-01 07:35:00,
2014-08-01 00:40:00,69.6,44.2,29.98,ESE,122,0.0,0.0,40,0.00,,CLR,0.00,VWS V15.00,2014-08-01 07:40:00,
2014-08-01 00:45:00,69.5,44.8,29.98,ESE,122,0.0,0.0,41,0.00,,CLR,0.00,VWS V15.00,2014-08-01 07:45:00,
2014-08-01 00:50:00,69.4,44.7,29.97,ESE,122,0.0,0.0,41,0.00,,CLR,0.00,VWS V15.00,2014-08-01 07:50:00,
2014-08-01 00:55:00,69.3,45.2,29.97,ESE,122,0.0,0.0,42,0.00,,CLR,0.00,VWS V15.00,2014-08-01 07:55:00,
2014-08-01 01:00:00,69.3,44.6,29.97,ESE,122,0.0,0.0,41,0.00,,FEW100,0.00,VWS V15.00,2014-08-01 08:00:00,
2014-08-01 01:05:00,69.3,44.6,29.97,ESE,122,0.0,0.0,41,0.00,,FEW100,0.00,VWS V15.00,2014-08-01 08:05:00,
2014-08-01 01:10:00,69.3,44.0,29.97,ESE,122,0.0,0.0,40,0.00,,FEW100,0.00,VWS V15.00,2014-08-01 08:10:00,
2014-08-01 01:15:00,69.2,43.9,29.97,ESE,122,0.0,0.0,40,0.00,,FEW100,0.00,VWS V15.00,2014-08-01 08:15:00,
2014-08-01 01:20:00,69.5,44.2,29.97,ESE,119,0.0,0.0,40,0.00,,FEW100,0.00,VWS V15.00,2014-08-01 08:20:00,
2014-08-01 01:25:00,70.0,43.9,29.97,SE,141,0.0,0.0,39,0.00,,FEW100,0.00,VWS V15.00,2014-08-01 08:25:00,
2014-08-01 01:30:00,71.0,44.1,29.98,ESE,102,0.0,3.0,38,0.00,,FEW100,0.00,VWS V15.00,2014-08-01 08:30:00,
2014-08-01 01:35:00,71.6,43.3,29.98,ESE,105,1.0,3.0,36,0.00,,FEW100,0.00,VWS V15.00,2014-08-01 08:35:00,
2014-08-01 01:40:00,71.6,44.0,29.98,South,170,1.0,3.0,37,0.00,,FEW100,0.00,VWS V15.00,2014-08-01 08:40:00,
2014-08-01 01:45:00,71.6,44.7,29.98,SSW,203,0.0,3.0,38,0.00,,FEW100,0.00,VWS V15.00,2014-08-01 08:45:00,
2014-08-01 01:50:00,70.5,45.7,29.98,SSW,203,0.0,3.0,41,0.00,,FEW100,0.00,VWS V15.00,2014-08-01 08:50:00,
2014-08-01 01:55:00,69.7,45.6,29.98,SSW,203,0.0,3.0,42,0.00,,FEW100,0.00,VWS V15.00,2014-08-01 08:55:00,
2014-08-01 02:00:00,69.0,45.6,29.98,SSW,202,0.0,0.0,43,0.00,,SCT110,0.00,VWS V15.00,2014-08-01 09:00:00,
2014-08-01 02:05:00,68.7,45.3,29.99,SSW,201,0.0,0.0,43,0.00,,SCT110,0.00,VWS V15.00,2014-08-01 09:05:00,
2014-08-01 02:10:00,68.6,44.6,29.98,SSW,202,0.0,0.0,42,0.00,,SCT110,0.00,VWS V15.00,2014-08-01 09:10:00,
2014-08-01 02:15:00,68.5,45.1,29.98,SSW,202,0.0,0.0,43,0.00,,SCT110,0.00,VWS V15.00,2014-08-01 09:15:00,
2014-08-01 02:20:00,68.4,44.4,29.99,SSW,205,2.0,2.0,42,0.00,,SCT110,0.00,VWS V15.00,2014-08-01 09:20:00,
2014-08-01 02:25:00,68.6,45.2,29.98,South,190,2.0,3.0,43,0.00,,SCT110,0.00,VWS V15.00,2014-08-01 09:25:00,
2014-08-01 02:30:00,68.7,45.3,29.99,SSW,204,2.0,3.0,43,0.00,,SCT110,0.00,VWS V15.00,2014-08-01 09:30:00,
2014-08-01 02:35:00,68.7,45.3,29.99,SSW,210,1.0,3.0,43,0.00,,SCT110,0.00,VWS V15.00,2014-08-01 09:35:00,
2014-08-01 02:40:00,68.8,45.4,29.98,South,188,2.0,3.0,43,0.00,,SCT110,0.00,VWS V15.00,2014-08-01 09:40:00,
2014-08-01 02:45:00,68.9,45.5,29.98,South,174,0.0,3.0,43,0.00,,SCT110,0.00,VWS V15.00,2014-08-01 09:45:00,
2014-08-01 02:50:00,68.9,45.5,29.98,South,174,0.0,3.0,43,0.00,,SCT110,0.00,VWS V15.00,2014-08-01 09:50:00,
2014-08-01 02:55:00,68.6,45.8,29.98,South,174,0.0,3.0,44,0.00,,SCT110,0.00,VWS V15.00,2014-08-01 09:55:00,
2014-08-01 03:00:00,68.5,45.8,29.98,SSW,205,2.0,3.0,44,0.00,,SCT110,0.00,VWS V15.00,2014-08-01 10:00:00,
2014-08-01 03:05:00,68.6,45.8,29.98,SSW,207,1.0,3.0,44,0.00,,SCT110,0.00,VWS V15.00,2014-08-01 10:05:00,
2014-08-01 03:10:00,68.6,46.4,29.98,SSW,198,1.0,3.0,45,0.00,,SCT110,0.00,VWS V15.00,2014-08-01 10:10:00,
2014-08-01 03:15:00,68.5,46.3,29.98,SSW,198,0.0,3.0,45,0.00,,SCT110,0.00,VWS V15.00,2014-08-01 10:15:00,
2014-08-01 03:20:00,68.1,46.6,29.98,SSW,198,0.0,3.0,46,0.00,,SCT110,0.00,VWS V15.00,2014-08-01 10:20:00,
2014-08-01 03:25:00,68.0,46.5,29.98,SSW,198,0.0,3.0,46,0.00,,SCT110,0.00,VWS V15.00,2014-08-01 10:25:00,
2014-08-01 03:30:00,67.5,46.6,29.98,SSW,198,0.0,3.0,47,0.00,,SCT110,0.00,VWS V15.00,2014-08-01 10:30:00,
2014-08-01 03:35:00,67.0,46.7,29.98,SSW,198,1.0,3.0,48,0.00,,SCT110,0.00,VWS V15.00,2014-08-01 10:35:00,
2014-08-01 03:40:00,67.3,46.4,29.98,SSW,204,1.0,3.0,47,0.00,,SCT110,0.00,VWS V15.00,2014-08-01 10:40:00,
2014-08-01 03:45:00,67.2,46.3,29.98,SSW,204,0.0,3.0,47,0.00,,SCT110,0.00,VWS V15.00,2014-08-01 10:45:00,
2014-08-01 03:50:00,66.6,46.9,29.97,SSW,204,0.0,3.0,49,0.00,,SCT110,0.00,VWS V15.00,2014-08-01 10:50:00,
2014-08-01 03:55:00,65.8,46.7,29.97,SSW,204,0.0,3.0,50,0.00,,SCT110,0.00,VWS V15.00,2014-08-01 10:55:00,
2014-08-01 04:00:00,65.3,46.7,29.98,SSW,204,0.0,0.0,51,0.00,,SCT110,0.00,VWS V15.00,2014-08-01 11:00:00,
2014-08-01 04:05:00,64.8,46.8,29.98,SSW,204,0.0,0.0,52,0.00,,SCT110,0.00,VWS V15.00,2014-08-01 11:05:00,
2014-08-01 04:10:00,64.4,46.9,29.98,SSW,204,0.0,0.0,53,0.00,,SCT110,0.00,VWS V15.00,2014-08-01 11:10:00,
2014-08-01 04:15:00,64.4,46.9,29.98,SSW,204,0.0,1.0,53,0.00,,SCT110,0.00,VWS V15.00,2014-08-01 11:15:00,
2014-08-01 04:20:00,64.5,46.5,29.98,SSW,204,0.0,1.0,52,0.00,,SCT110,0.00,VWS V15.00,2014-08-01 11:20:00,
2014-08-01 04:25:00,64.4,46.9,29.98,SSW,204,0.0,1.0,53,0.00,,SCT110,0.00,VWS V15.00,2014-08-01 11:25:00,
2014-08-01 04:30:00,64.3,46.8,29.98,SSW,203,0.0,1.0,53,0.00,,SCT110,0.00,VWS V15.00,2014-08-01 11:30:00,
2014-08-01 04:35:00,64.4,47.9,29.98,SSW,203,0.0,1.0,55,0.00,,SCT110,0.00,VWS V15.00,2014-08-01 11:35:00,
2014-08-01 04:39:00,64.8,48.3,29.98,SSW,203,0.0,1.0,55,0.00,,SCT110,0.00,VWS V15.00,2014-08-01 11:39:00,
2014-08-01 04:44:00,65.0,48.0,29.98,SSW,203,0.0,1.0,54,0.00,,SCT110,0.00,VWS V15.00,2014-08-01 11:44:00,
2014-08-01 04:49:00,64.8,47.8,29.98,SSW,203,0.0,1.0,54,0.00,,SCT110,0.00,VWS V15.00,2014-08-01 11:49:00,
2014-08-01 04:54:00,64.3,47.8,29.97,SSW,203,0.0,1.0,55,0.00,,SCT110,0.00,VWS V15.00,2014-08-01 11:54:00,
2014-08-01 04:59:00,63.7,47.2,29.97,SSW,203,0.0,1.0,55,0.00,,FEW100,0.00,VWS V15.00,2014-08-01 11:59:00,
2014-08-01 05:04:00,63.3,47.3,29.97,SSW,203,0.0,1.0,56,0.00,,FEW100,0.00,VWS V15.00,2014-08-01 12:04:00,
2014-08-01 05:09:00,62.8,46.9,29.97,SSW,203,0.0,1.0,56,0.00,,FEW100,0.00,VWS V15.00,2014-08-01 12:09:00,
2014-08-01 05:14:00,62.8,47.4,29.97,SSW,203,0.0,1.0,57,0.00,,FEW100,0.00,VWS V15.00,2014-08-01 12:14:00,
2014-08-01 05:19:00,62.7,46.8,29.98,SSW,203,0.0,1.0,56,0.00,,FEW100,0.00,VWS V15.00,2014-08-01 12:19:00,
2014-08-01 05:24:00,62.4,47.5,29.98,SSW,203,0.0,1.0,58,0.00,,FEW100,0.00,VWS V15.00,2014-08-01 12:24:00,
2014-08-01 05:29:00,62.1,47.6,29.98,SSW,203,0.0,1.0,59,0.00,,FEW100,0.00,VWS V15.00,2014-08-01 12:29:00,
2014-08-01 05:34:00,61.7,47.2,29.98,SSW,203,0.0,1.0,59,0.00,,FEW100,0.00,VWS V15.00,2014-08-01 12:34:00,
2014-08-01 05:39:00,61.3,46.9,29.98,SSW,203,0.0,1.0,59,0.00,,FEW100,0.00,VWS V15.00,2014-08-01 12:39:00,
2014-08-01 05:44:00,60.9,46.9,29.98,SSW,203,0.0,1.0,60,0.00,,FEW100,0.00,VWS V15.00,2014-08-01 12:44:00,
2014-08-01 05:49:00,60.6,47.1,29.98,SSW,203,0.0,1.0,61,0.00,,FEW100,0.00,VWS V15.00,2014-08-01 12:49:00,
2014-08-01 05:54:00,60.7,46.8,29.98,SSW,203,0.0,1.0,60,0.00,,FEW100,0.00,VWS V15.00,2014-08-01 12:54:00,
2014-08-01 05:59:00,60.5,47.0,29.98,SSW,203,0.0,0.0,61,0.00,,SCT100,0.00,VWS V15.00,2014-08-01 12:59:00,
2014-08-01 06:04:00,60.5,46.6,29.98,SSW,203,0.0,0.0,60,0.00,,SCT100,0.00,VWS V15.00,2014-08-01 13:04:00,
2014-08-01 06:09:00,60.6,47.1,29.98,SSW,203,0.0,0.0,61,0.00,,SCT100,0.00,VWS V15.00,2014-08-01 13:09:00,
2014-08-01 06:14:00,60.6,47.1,29.98,SSW,203,0.0,0.0,61,0.00,,SCT100,0.00,VWS V15.00,2014-08-01 13:14:00,
2014-08-01 06:19:00,60.5,47.0,29.98,SSW,203,0.0,0.0,61,0.00,,SCT100,0.00,VWS V15.00,2014-08-01 13:19:00,
2014-08-01 06:24:00,61.1,47.6,29.98,SSW,203,0.0,0.0,61,0.00,,SCT100,0.00,VWS V15.00,2014-08-01 13:24:00,
2014-08-01 06:29:00,61.9,48.3,29.98,SSW,203,0.0,0.0,61,0.00,,SCT100,0.00,VWS V15.00,2014-08-01 13:29:00,
2014-08-01 06:34:00,62.3,48.2,29.98,SSW,203,0.0,0.0,60,0.00,,SCT100,0.00,VWS V15.00,2014-08-01 13:34:00,
2014-08-01 06:39:00,62.5,48.9,29.98,SSW,203,0.0,0.0,61,0.00,,SCT100,0.00,VWS V15.00,2014-08-01 13:39:00,
2014-08-01 06:44:00,62.8,48.7,29.98,SSW,203,0.0,0.0,60,0.00,,SCT100,0.00,VWS V15.00,2014-08-01 13:44:00,
2014-08-01 06:49:00,63.5,48.5,29.98,SSW,203,0.0,0.0,58,0.00,,SCT100,0.00,VWS V15.00,2014-08-01 13:49:00,
2014-08-01 06:54:00,63.6,48.6,29.98,SSW,203,0.0,0.0,58,0.00,,SCT100,0.00,VWS V15.00,2014-08-01 13:54:00,
2014-08-01 06:59:00,64.3,49.2,29.98,SSW,203,0.0,0.0,58,0.00,,SCT150,0.00,VWS V15.00,2014-08-01 13:59:00,
2014-08-01 07:04:00,65.0,49.4,29.98,SSW,203,0.0,0.0,57,0.00,,SCT150,0.00,VWS V15.00,2014-08-01 14:04:00,
2014-08-01 07:09:00,64.9,49.3,29.98,SSW,203,0.0,0.0,57,0.00,,SCT150,0.00,VWS V15.00,2014-08-01 14:09:00,
2014-08-01 07:14:00,64.6,49.0,29.98,SSW,203,0.0,0.0,57,0.00,,SCT150,0.00,VWS V15.00,2014-08-01 14:14:00,
2014-08-01 07:19:00,64.7,48.7,29.98,SSW,203,0.0,0.0,56,0.00,,SCT150,0.00,VWS V15.00,2014-08-01 14:19:00,
2014-08-01 07:24:00,65.6,49.0,29.98,SSW,203,0.0,0.0,55,0.00,,SCT150,0.00,VWS V15.00,2014-08-01 14:24:00,
2014-08-01 07:29:00,66.4,48.3,29.98,SSW,203,0.0,0.0,52,0.00,,SCT150,0.00,VWS V15.00,2014-08-01 14:29:00,
2014-08-01 07:34:00,67.2,48.5,29.98,SSW,203,0.0,0.0,51,0.00,,SCT150,0.00,VWS V15.00,2014-08-01 14:34:00,
2014-08-01 07:39:00,68.6,49.2,29.98,SSW,203,0.0,0.0,50,0.00,,SCT150,0.00,VWS V15.00,2014-08-01 14:39:00,
2014-08-01 07:44:00,70.1,49.5,29.98,SSW,203,0.0,0.0,48,0.00,,SCT150,0.00,VWS V15.00,2014-08-01 14:44:00,
2014-08-01 07:49:00,71.6,47.9,29.98,SSW,203,0.0,0.0,43,0.00,,SCT150,0.00,VWS V15.00,2014-08-01 14:49:00,
2014-08-01 07:54:00,72.4,48.0,29.98,SSW,203,0.0,0.0,42,0.00,,SCT150,0.00,VWS V15.00,2014-08-01 14:54:00,
2014-08-01 07:59:00,72.0,49.5,29.98,SSW,203,0.0,0.0,45,0.00,,SCT150,0.00,VWS V15.00,2014-08-01 14:59:00,
2014-08-01 08:04:00,72.9,49.7,29.98,SSW,203,0.0,1.0,44,0.00,,SCT150,0.00,VWS V15.00,2014-08-01 15:04:00,
2014-08-01 08:09:00,73.0,50.4,29.98,SSW,212,0.0,1.0,45,0.00,,SCT150,0.00,VWS V15.00,2014-08-01 15:09:00,
2014-08-01 08:14:00,73.8,50.5,29.98,SSW,212,0.0,1.0,44,0.00,,SCT150,0.00,VWS V15.00,2014-08-01 15:14:00,
2014-08-01 08:19:00,74.9,50.3,29.98,SSW,212,0.0,1.0,42,0.00,,SCT150,0.00,VWS V15.00,2014-08-01 15:19:00,
2014-08-01 08:24:00,75.1,50.5,29.98,SSW,210,1.0,2.0,42,0.00,,SCT150,0.00,VWS V15.00,2014-08-01 15:24:00,
2014-08-01 08:29:00,74.3,49.8,29.98,SW,215,0.0,2.0,42,0.00,,SCT150,0.00,VWS V15.00,2014-08-01 15:29:00,
2014-08-01 08:34:00,74.5,51.2,29.99,ESE,118,0.0,2.0,44,0.00,,SCT150,0.00,VWS V15.00,2014-08-01 15:34:00,
2014-08-01 08:39:00,75.0,50.4,29.99,SW,232,1.0,2.0,42,0.00,,SCT150,0.00,VWS V15.00,2014-08-01 15:39:00,
2014-08-01 08:44:00,75.0,51.0,29.98,SSW,204,0.0,2.0,43,0.00,,SCT150,0.00,VWS V15.00,2014-08-01 15:44:00,
2014-08-01 08:49:00,75.5,52.7,29.98,SSW,204,0.0,2.0,45,0.00,,SCT150,0.00,VWS V15.00,2014-08-01 15:49:00,
2014-08-01 08:54:00,76.5,51.1,29.98,South,190,0.0,2.0,41,0.00,,SCT150,0.00,VWS V15.00,2014-08-01 15:54:00,